Regional Weather Roundup
Issued by NWS State College, PA

Home | Current Version | Previous Version | Text Only | Print | Product List | Glossary Off
Versions: 1 2 3 4 5 6 7 8 9 10 11 12 13 14 15 16 17 18 19 20 21 22 23 24 25 26 27 28 29 30 31 32 33 34 35 36 37 38 39 40 41 42 43 44 45 46 47 48 49 50

000
ASUS41 KCTP 280510
RWRCTP

REGIONAL WEATHER ROUNDUP
NATIONAL WEATHER SERVICE STATE COLLEGE PA
100 AM EDT THU MAY 28 2015

Note: "fair" indicates few or no clouds below 12,000 feet with no
significant weather and/or obstructions to visibility.

* = STATION THAT DOES NOT REPORT PRECIPITATION /E.G. RAIN...SNOW...ETC/
    THUNDER OR FOG.

PAZ002>004-007>009-013>016-020>023-029>032-280600-
WESTERN PENNSYLVANIA

CITY           SKY/WX    TMP DP  RH WIND       PRES   REMARKS
ERIE           LGT RAIN  64  60  87 S12       30.07F
MEADVILLE      RAIN      61  59  93 VRB6      30.13R FOG
FRANKLIN*      CLOUDY    61  55  82 SW7       30.18R
NEW CASTLE     MOCLDY    63  63 100 CALM      30.15R
BEAVER COUNTY  NOT AVBL
BUTLER*        PTCLDY    63  59  88 SE3       30.15F
PITTSBURGH INT PTCLDY    69  60  73 E6        30.13S
PITTSBURGH     PTCLDY    69  59  70 S5        30.13S
INDIANA*       PTCLDY    64  61  88 CALM      30.18S
LATROBE        PTCLDY    63  63 100 CALM      30.16S
WASHINGTON CO* PTCLDY    61  59  94 CALM      30.16R
$$

PAZ004>006-010>012-017>019-024>028-033>037-041-042-045-046-049>053-280600-
CENTRAL PENNSYLVANIA

CITY           SKY/WX    TMP DP  RH WIND       PRES   REMARKS
BRADFORD       RAIN      60  57  89 NW3       30.16R FOG
DUBOIS         LGT RAIN  63  59  87 W12       30.16R
CLEARFIELD     PTCLDY    61  58  90 CALM      30.15S
JOHNSTOWN      CLEAR     65  58  78 S7        30.19S
ALTOONA        CLOUDY    67  60  78 S3        30.17S
STATE COLLEGE  PTCLDY    68  60  74 SW3       30.13F
WILLIAMSPORT   CLEAR     67  63  87 CALM      30.09F
SELINSGROVE    CLEAR     70  67  90 CALM      30.12F
FT INDIANTOWN  FOG       64  64 100 CALM      30.13F VSB 1/4
CAPITAL CITY   CLEAR     67  65  93 CALM      30.13F
HARRISBURG     PTCLDY    68  65  90 CALM      30.12F
YORK           CLEAR     66  65  96 CALM      30.14F
$$

PAZ038>040-043-044-047-048-054-055-060>062-067>071-280600-
EASTERN PENNSYLVANIA

CITY           SKY/WX    TMP DP  RH WIND       PRES   REMARKS
SCRANTON       CLEAR     65  62  90 CALM      30.13F FOG
MOUNT POCONO   CLEAR     64  61  90 W6        30.17F
ALLENTOWN      FOG       63  63 100 CALM      30.14S VSB 1/4
QUAKERTOWN*      N/A     64  64 100 CALM      30.15F
READING        CLEAR     67  65  93 CALM      30.12F
LANCASTER      CLEAR     67  65  93 CALM      30.13F
COATESVILLE    PTCLDY    68  68 100 CALM      30.16F
POTTSTOWN      CLEAR     66  66 100 CALM      30.15F
BLUE BELL      PTCLDY    70  70 100 SW3       30.14S
DOYLESTOWN     PTCLDY    68  68 100 S5        30.13F
WILLOW GROVE   NOT AVBL
NORTH PHILA    PTCLDY    73  67  81 S7        30.15F
PHILADELPHIA   MOCLDY    72  69  90 S5        30.15F
$$


USA.gov is the U.S. government's official web portal to all federal, state and local government web resources and services.